seed: p2v3s80

Total games: 52


  • Filter by # of Players
  • Filter by Score
  • Filter by Variant



ID # of Players Score Variant Date & Time Players
48767 2 30 Rainbow (6 Suits) 2019-08-02 — 02:48:13 UTC em, J3enjamin
321359 2 30 Rainbow (6 Suits) 2020-10-16 — 02:49:18 UTC johnboy81918, Stephzheng
327323 2 30 Rainbow (6 Suits) 2020-10-24 — 15:05:42 UTC JoostM, Thomas1234
412513 2 30 Rainbow (6 Suits) 2021-01-23 — 17:56:27 UTC Etherealz, missyalyssi
456494 2 30 Rainbow (6 Suits) 2021-03-04 — 17:36:21 UTC ArcheNoah, jule_2000
484490 2 30 Rainbow (6 Suits) 2021-03-29 — 17:28:42 UTC lcflorencelo, slyrk
513542 2 30 Rainbow (6 Suits) 2021-04-27 — 00:55:21 UTC Frozen_Animal, Macs_girl
568916 2 30 Rainbow (6 Suits) 2021-06-21 — 17:29:57 UTC enkimdu, Ritz1974
589209 2 30 Rainbow (6 Suits) 2021-07-14 — 18:47:03 UTC Frozen_Animal_, Macs_girl_
628818 2 30 Rainbow (6 Suits) 2021-09-18 — 20:02:15 UTC JonathanHicks, sole.garcia
631212 2 30 Rainbow (6 Suits) 2021-09-23 — 02:28:54 UTC Cornflake62, kuib
481356 2 29 Rainbow (6 Suits) 2021-03-26 — 18:02:35 UTC Footscrayzy, Noble
503338 2 29 Rainbow (6 Suits) 2021-04-16 — 21:03:08 UTC hambrenson, veganpecan
201742 2 28 Rainbow (6 Suits) 2020-06-10 — 20:53:50 UTC Crivens_Temp, eliyahu
368671 2 28 Rainbow (6 Suits) 2020-12-12 — 06:51:05 UTC heftych1, kimgannon
392241 2 28 Rainbow (6 Suits) 2021-01-04 — 05:13:09 UTC gsherm, tbt
151034 2 26 Rainbow (6 Suits) 2020-05-04 — 01:21:39 UTC fivefives, jwngr
272527 2 26 Rainbow (6 Suits) 2020-08-16 — 15:39:55 UTC Lee3, RickSanchez
407732 2 26 Rainbow (6 Suits) 2021-01-18 — 20:03:34 UTC FrozenAnimal, Macsgirl
517731 2 24 Rainbow (6 Suits) 2021-05-01 — 15:03:50 UTC rea, rossopesce
130956 2 23 Rainbow (6 Suits) 2020-04-20 — 22:14:58 UTC Sadret, Sharklah
5767 2 0 Rainbow (6 Suits) 2018-04-29 — 01:50:38 UTC florrat2, ThirdStrike
25579 2 0 Rainbow (6 Suits) 2019-03-25 — 02:37:44 UTC Libster, Razgovor
60873 2 0 Rainbow (6 Suits) 2019-10-26 — 22:20:54 UTC hbjornoy, heddav
64696 2 0 Rainbow (6 Suits) 2019-11-15 — 10:19:24 UTC Dr_Kakashi, RaKXeR
122427 2 0 Rainbow (6 Suits) 2020-04-15 — 02:13:01 UTC dewey, liwei
139709 2 0 Rainbow (6 Suits) 2020-04-26 — 19:07:44 UTC bornagy, nandu13
162918 2 0 Rainbow (6 Suits) 2020-05-12 — 07:03:37 UTC WadeYao, YYF
164025 2 0 Rainbow (6 Suits) 2020-05-13 — 05:23:57 UTC Dilshaad, Dimithi
167735 2 0 Rainbow (6 Suits) 2020-05-16 — 02:43:49 UTC anna2, bfichera
193796 2 0 Rainbow (6 Suits) 2020-06-04 — 16:03:58 UTC Hawlucha, mperera
195511 2 0 Rainbow (6 Suits) 2020-06-06 — 01:02:52 UTC buxtehude11, yeeclaw
195938 2 0 Rainbow (6 Suits) 2020-06-06 — 05:04:11 UTC jalmenda, zmill415
202495 2 0 Rainbow (6 Suits) 2020-06-11 — 10:19:17 UTC Guamo, larki
223100 2 0 Rainbow (6 Suits) 2020-06-29 — 07:00:31 UTC RespectCaviar, schemetrical
229353 2 0 Rainbow (6 Suits) 2020-07-04 — 21:15:05 UTC annieboboh, penguin69
235474 2 0 Rainbow (6 Suits) 2020-07-10 — 21:50:57 UTC aridante, nostalgiccat
277522 2 0 Rainbow (6 Suits) 2020-08-22 — 15:23:48 UTC opurtell, raholstine
296031 2 0 Rainbow (6 Suits) 2020-09-12 — 20:02:54 UTC ihavenoidea, VerySloppyTwo
333861 2 0 Rainbow (6 Suits) 2020-11-02 — 20:04:39 UTC mglanzer, rfrank27
372523 2 0 Rainbow (6 Suits) 2020-12-16 — 04:28:33 UTC Fffffffffffffff, mrpoopybutthole
417994 2 0 Rainbow (6 Suits) 2021-01-28 — 22:51:32 UTC socerman, tacobot5000
421709 2 0 Rainbow (6 Suits) 2021-02-01 — 02:25:18 UTC Cold, Shad_Crow
509112 2 0 Rainbow (6 Suits) 2021-04-22 — 03:36:50 UTC jasmine, NotAnotherMatt
543261 2 0 Rainbow (6 Suits) 2021-05-29 — 00:47:02 UTC Mage, rainboy
570390 2 0 Rainbow (6 Suits) 2021-06-22 — 19:45:15 UTC adik, oldgreg
601863 2 0 Rainbow (6 Suits) 2021-08-04 — 18:00:11 UTC clspencer, sjforion
613521 2 0 Rainbow (6 Suits) 2021-08-23 — 20:51:15 UTC Charles123123, wardsux1
623387 2 0 Rainbow (6 Suits) 2021-09-08 — 22:52:50 UTC JTJTJTJTJT, zxczxczxczxczxc
642762 2 0 Rainbow (6 Suits) 2021-10-13 — 19:20:43 UTC ajsehifowha, dunes1
646947 2 0 Rainbow (6 Suits) 2021-10-21 — 18:55:23 UTC asdaa, HiIIIHIII
649334 2 0 Rainbow (6 Suits) 2021-10-25 — 20:30:00 UTC sadasdasdasdas, xzgsd